TEJ103 SCSE-SCEL

Flight info

Callsign TEJ103
Flight time 0h 40m
Altitude 29000
Route EDRON5 EDRON UL302 SIMOK SIMOK7B
Aircraft A320/M-SDE3FGHIRWY/LB1

Departure

Time 2026-04-26 22:35
Airport La Florida Airport (SCSE)

Arrival

Time 2026-04-26 23:15
Airport Comodoro Arturo Merino Benítez International Airport (SCEL)
Time Latitude Longitude Altitude Speed Heading
2026-04-26 22:11 -29.91669 -71.20341 453 ft 0 kts 205°
2026-04-26 22:26 -29.91652 -71.20332 475 ft 4 kts 199°
2026-04-26 22:27 -29.91626 -71.20325 476 ft 4 kts 172°
2026-04-26 22:27 -29.91608 -71.20336 476 ft 1 kts 116°
2026-04-26 22:30 -29.91610 -71.20329 472 ft 2 kts 112°
2026-04-26 22:30 -29.91604 -71.20313 472 ft 3 kts 65°
2026-04-26 22:30 -29.91591 -71.20299 478 ft 0 kts 32°
2026-04-26 22:31 -29.91571 -71.20287 479 ft 8 kts 26°
2026-04-26 22:31 -29.91543 -71.20195 480 ft 19 kts 106°
2026-04-26 22:32 -29.91622 -71.20017 473 ft 30 kts 119°
2026-04-26 22:32 -29.91732 -71.19770 475 ft 36 kts 116°
2026-04-26 22:32 -29.91842 -71.19486 477 ft 40 kts 115°
2026-04-26 22:32 -29.91950 -71.19238 476 ft 30 kts 117°
2026-04-26 22:33 -29.92037 -71.19103 476 ft 15 kts 135°
2026-04-26 22:33 -29.92014 -71.19088 479 ft 3 kts 298°
2026-04-26 22:34 -29.92014 -71.19089 479 ft 2 kts 297°
2026-04-26 22:34 -29.91916 -71.19318 473 ft 67 kts 295°
2026-04-26 22:34 -29.91619 -71.20012 478 ft 123 kts 296°
2026-04-26 22:34 -29.91206 -71.21041 597 ft 155 kts 294°
2026-04-26 22:35 -29.90711 -71.22173 1146 ft 158 kts 295°
2026-04-26 22:35 -29.90237 -71.23300 1841 ft 154 kts 296°
2026-04-26 22:35 -29.89939 -71.24024 2322 ft 147 kts 295°
2026-04-26 22:35 -29.89577 -71.25069 2818 ft 138 kts 274°
2026-04-26 22:36 -29.89701 -71.26208 2919 ft 159 kts 242°
2026-04-26 22:36 -29.90413 -71.27281 2941 ft 189 kts 216°
2026-04-26 22:36 -29.91781 -71.27789 2949 ft 226 kts 181°
2026-04-26 22:36 -29.93438 -71.27840 3375 ft 250 kts 181°
2026-04-26 22:37 -29.95219 -71.27922 4095 ft 260 kts 182°
2026-04-26 22:37 -29.97042 -71.28020 4986 ft 264 kts 182°
2026-04-26 22:37 -29.98893 -71.28120 5840 ft 268 kts 182°
2026-04-26 22:37 -30.00774 -71.28221 6660 ft 273 kts 182°
2026-04-26 22:38 -30.02686 -71.28321 7443 ft 278 kts 182°
2026-04-26 22:38 -30.04635 -71.28421 8232 ft 283 kts 183°
2026-04-26 22:38 -30.06622 -71.28521 8985 ft 288 kts 183°
2026-04-26 22:38 -30.08648 -71.28620 9735 ft 294 kts 183°
2026-04-26 22:39 -30.10730 -71.28707 10253 ft 309 kts 182°
2026-04-26 22:39 -30.12962 -71.28779 10463 ft 332 kts 182°
2026-04-26 22:39 -30.15322 -71.28845 10917 ft 343 kts 182°
2026-04-26 22:39 -30.17699 -71.28910 11593 ft 347 kts 182°
2026-04-26 22:40 -30.20125 -71.28979 12321 ft 350 kts 182°
2026-04-26 22:40 -30.22567 -71.29050 13066 ft 352 kts 182°
2026-04-26 22:40 -30.25030 -71.29124 13796 ft 355 kts 182°
2026-04-26 22:40 -30.27504 -71.29202 14440 ft 357 kts 183°
2026-04-26 22:41 -30.30002 -71.29280 15093 ft 359 kts 183°
2026-04-26 22:41 -30.32503 -71.29358 15755 ft 361 kts 183°
2026-04-26 22:41 -30.35022 -71.29436 16404 ft 362 kts 184°
2026-04-26 22:41 -30.37548 -71.29516 17056 ft 364 kts 184°
2026-04-26 22:42 -30.40094 -71.29598 17737 ft 366 kts 184°
2026-04-26 22:42 -30.42649 -71.29679 18416 ft 368 kts 185°
2026-04-26 22:42 -30.45217 -71.29759 19017 ft 370 kts 185°
2026-04-26 22:42 -30.47806 -71.29842 19601 ft 373 kts 185°
2026-04-26 22:43 -30.50414 -71.29927 20172 ft 376 kts 185°
2026-04-26 22:43 -30.53014 -71.29958 20735 ft 382 kts 181°
2026-04-26 22:43 -30.55675 -71.29491 21268 ft 392 kts 170°
2026-04-26 22:43 -30.58269 -71.28393 21800 ft 403 kts 159°
2026-04-26 22:44 -30.60766 -71.26844 22328 ft 408 kts 156°
2026-04-26 22:44 -30.63275 -71.25274 22828 ft 411 kts 157°
2026-04-26 22:44 -30.65815 -71.23692 23342 ft 415 kts 157°
2026-04-26 22:44 -30.68377 -71.22102 23792 ft 419 kts 157°
2026-04-26 22:45 -30.70962 -71.20501 24217 ft 422 kts 158°
2026-04-26 22:45 -30.73527 -71.18910 24635 ft 425 kts 158°
2026-04-26 22:45 -30.76116 -71.17301 25025 ft 428 kts 158°
2026-04-26 22:45 -30.78508 -71.15808 25376 ft 431 kts 158°
2026-04-26 22:46 -30.81165 -71.14147 25765 ft 434 kts 158°
2026-04-26 22:46 -30.83842 -71.12473 26157 ft 437 kts 158°
2026-04-26 22:46 -30.86543 -71.10785 26554 ft 440 kts 158°
2026-04-26 22:46 -30.89245 -71.09092 26946 ft 443 kts 158°
2026-04-26 22:47 -30.91971 -71.07384 27319 ft 446 kts 158°
2026-04-26 22:47 -30.94713 -71.05663 27677 ft 449 kts 159°
2026-04-26 22:47 -30.97477 -71.03930 28057 ft 452 kts 159°
2026-04-26 22:47 -31.00220 -71.02211 28439 ft 455 kts 159°
2026-04-26 22:48 -31.03055 -71.00432 28804 ft 459 kts 159°
2026-04-26 22:48 -31.05840 -70.98686 29157 ft 462 kts 159°
2026-04-26 22:48 -31.08691 -70.96899 29514 ft 464 kts 159°
2026-04-26 22:48 -31.11539 -70.95109 29866 ft 468 kts 159°
2026-04-26 22:49 -31.14410 -70.93297 30036 ft 466 kts 159°
2026-04-26 22:49 -31.20009 -70.89745 30066 ft 453 kts 160°
2026-04-26 22:50 -31.25504 -70.86275 30081 ft 451 kts 160°
2026-04-26 22:50 -31.31100 -70.83017 30093 ft 441 kts 169°
2026-04-26 22:50 -31.34011 -70.82072 30100 ft 429 kts 179°
2026-04-26 22:51 -31.36934 -70.81681 30102 ft 418 kts 187°
2026-04-26 22:51 -31.42652 -70.82083 30106 ft 410 kts 194°
2026-04-26 22:52 -31.48322 -70.82650 30109 ft 409 kts 194°
2026-04-26 22:52 -31.53983 -70.83209 30092 ft 408 kts 194°
2026-04-26 22:53 -31.59653 -70.83770 30087 ft 409 kts 194°
2026-04-26 22:53 -31.65292 -70.84326 30095 ft 410 kts 194°
2026-04-26 22:54 -31.70971 -70.84895 30102 ft 409 kts 194°
2026-04-26 22:54 -31.76671 -70.85271 30102 ft 416 kts 188°
2026-04-26 22:54 -31.79558 -70.85160 29895 ft 414 kts 187°
2026-04-26 22:55 -31.82430 -70.85046 29328 ft 411 kts 187°
2026-04-26 22:55 -31.85269 -70.84933 28843 ft 406 kts 187°
2026-04-26 22:55 -31.88082 -70.84827 28353 ft 402 kts 187°
2026-04-26 22:55 -31.90862 -70.84727 27864 ft 397 kts 187°
2026-04-26 22:56 -31.93605 -70.84630 27389 ft 393 kts 187°
2026-04-26 22:56 -31.96330 -70.84537 26931 ft 389 kts 187°
2026-04-26 22:56 -31.99027 -70.84446 26487 ft 385 kts 186°
2026-04-26 22:56 -32.01702 -70.84352 26039 ft 383 kts 186°
2026-04-26 22:57 -32.04350 -70.84258 25614 ft 379 kts 186°
2026-04-26 22:57 -32.06942 -70.84162 25209 ft 376 kts 185°
2026-04-26 22:57 -32.09551 -70.84074 24792 ft 374 kts 185°
2026-04-26 22:57 -32.12142 -70.83987 24379 ft 372 kts 185°
2026-04-26 22:58 -32.14726 -70.83897 23965 ft 370 kts 185°
2026-04-26 22:58 -32.17293 -70.83806 23534 ft 369 kts 184°
2026-04-26 22:58 -32.19578 -70.83722 23122 ft 367 kts 184°
2026-04-26 22:58 -32.22127 -70.83627 22698 ft 364 kts 184°
2026-04-26 22:59 -32.24647 -70.83533 22250 ft 361 kts 184°
2026-04-26 22:59 -32.27149 -70.83443 21790 ft 358 kts 184°
2026-04-26 22:59 -32.29633 -70.83356 21331 ft 356 kts 184°
2026-04-26 22:59 -32.32105 -70.83268 20839 ft 354 kts 184°
2026-04-26 23:00 -32.34521 -70.83181 20387 ft 350 kts 183°
2026-04-26 23:00 -32.36954 -70.83094 19906 ft 349 kts 183°
2026-04-26 23:00 -32.39377 -70.83008 19426 ft 347 kts 183°
2026-04-26 23:00 -32.41530 -70.82933 19002 ft 346 kts 182°
2026-04-26 23:01 -32.43937 -70.82848 18525 ft 346 kts 182°
2026-04-26 23:01 -32.46326 -70.82761 18143 ft 340 kts 182°
2026-04-26 23:01 -32.48653 -70.82672 17536 ft 329 kts 182°
2026-04-26 23:01 -32.50888 -70.82585 17091 ft 314 kts 182°
2026-04-26 23:02 -32.53025 -70.82505 16680 ft 302 kts 182°
2026-04-26 23:02 -32.55135 -70.82433 16271 ft 304 kts 182°
2026-04-26 23:02 -32.56538 -70.82387 15998 ft 304 kts 182°
2026-04-26 23:02 -32.58910 -70.82310 15555 ft 305 kts 181°
2026-04-26 23:03 -32.60962 -70.82240 15162 ft 306 kts 180°
2026-04-26 23:03 -32.63064 -70.82161 14760 ft 307 kts 181°
2026-04-26 23:03 -32.65198 -70.82080 14440 ft 304 kts 181°
2026-04-26 23:03 -32.67275 -70.82002 14320 ft 293 kts 180°
2026-04-26 23:04 -32.69304 -70.81924 14190 ft 284 kts 181°
2026-04-26 23:04 -32.71231 -70.81851 14002 ft 278 kts 181°
2026-04-26 23:04 -32.73138 -70.81781 13913 ft 272 kts 181°
2026-04-26 23:04 -32.75042 -70.81714 13851 ft 274 kts 181°
2026-04-26 23:05 -32.76962 -70.81648 13468 ft 280 kts 181°
2026-04-26 23:05 -32.78902 -70.81579 13151 ft 278 kts 180°
2026-04-26 23:05 -32.80855 -70.81510 12769 ft 279 kts 180°
2026-04-26 23:05 -32.82780 -70.81442 12489 ft 276 kts 180°
2026-04-26 23:06 -32.84520 -70.81380 12170 ft 274 kts 180°
2026-04-26 23:06 -32.86426 -70.81311 11593 ft 273 kts 179°
2026-04-26 23:06 -32.88327 -70.81243 11028 ft 273 kts 179°
2026-04-26 23:06 -32.90212 -70.81175 10483 ft 272 kts 179°
2026-04-26 23:07 -32.92114 -70.81151 9946 ft 270 kts 185°
2026-04-26 23:07 -32.93344 -70.81327 9617 ft 267 kts 187°
2026-04-26 23:07 -32.95780 -70.81697 9038 ft 268 kts 187°
2026-04-26 23:07 -32.97625 -70.81976 8750 ft 266 kts 187°
2026-04-26 23:08 -32.99475 -70.82256 8344 ft 269 kts 186°
2026-04-26 23:08 -33.01301 -70.82369 7993 ft 261 kts 176°
2026-04-26 23:08 -33.03113 -70.82267 7500 ft 258 kts 176°
2026-04-26 23:08 -33.04899 -70.82166 7009 ft 256 kts 176°
2026-04-26 23:09 -33.06650 -70.82064 6591 ft 252 kts 176°
2026-04-26 23:09 -33.08390 -70.81962 6165 ft 248 kts 176°
2026-04-26 23:09 -33.10129 -70.81859 5763 ft 246 kts 176°
2026-04-26 23:09 -33.11805 -70.81761 5527 ft 240 kts 176°
2026-04-26 23:10 -33.13435 -70.81667 5460 ft 228 kts 176°
2026-04-26 23:10 -33.14980 -70.81577 5367 ft 219 kts 176°
2026-04-26 23:10 -33.16495 -70.81490 5282 ft 218 kts 176°
2026-04-26 23:10 -33.18005 -70.81403 5169 ft 217 kts 176°
2026-04-26 23:11 -33.19511 -70.81319 4938 ft 215 kts 177°
2026-04-26 23:11 -33.21000 -70.81238 4671 ft 213 kts 177°
2026-04-26 23:11 -33.22458 -70.81160 4389 ft 204 kts 177°
2026-04-26 23:11 -33.23837 -70.81087 4162 ft 192 kts 177°
2026-04-26 23:12 -33.25135 -70.81018 3880 ft 179 kts 177°
2026-04-26 23:12 -33.26337 -70.80953 3647 ft 167 kts 177°
2026-04-26 23:12 -33.27454 -70.80894 3435 ft 158 kts 177°
2026-04-26 23:12 -33.28520 -70.80836 3232 ft 149 kts 177°
2026-04-26 23:13 -33.29538 -70.80782 3057 ft 145 kts 177°
2026-04-26 23:13 -33.30434 -70.80734 2896 ft 138 kts 177°
2026-04-26 23:13 -33.31398 -70.80682 2716 ft 138 kts 177°
2026-04-26 23:13 -33.32360 -70.80631 2520 ft 138 kts 176°
2026-04-26 23:14 -33.33313 -70.80580 2349 ft 137 kts 176°
2026-04-26 23:14 -33.34270 -70.80529 2168 ft 136 kts 176°
2026-04-26 23:14 -33.35214 -70.80478 1988 ft 135 kts 176°
2026-04-26 23:14 -33.36159 -70.80427 1811 ft 136 kts 176°
2026-04-26 23:15 -33.37088 -70.80376 1640 ft 134 kts 176°
2026-04-26 23:15 -33.38023 -70.80308 1574 ft 131 kts 176°
2026-04-26 23:15 -33.38689 -70.80275 1575 ft 60 kts 179°
2026-04-26 23:15 -33.39047 -70.80265 1574 ft 36 kts 178°
2026-04-26 23:16 -33.39187 -70.80255 1573 ft 6 kts 166°
2026-04-26 23:16 -33.39238 -70.80239 1572 ft 9 kts 161°
2026-04-26 23:16 -33.39308 -70.80206 1572 ft 13 kts 155°
2026-04-26 23:16 -33.39398 -70.80149 1569 ft 17 kts 149°
2026-04-26 23:17 -33.39503 -70.80054 1566 ft 21 kts 127°
2026-04-26 23:17 -33.39525 -70.79904 1565 ft 16 kts 89°
2026-04-26 23:17 -33.39540 -70.79815 1565 ft 8 kts 145°
2026-04-26 23:17 -33.39580 -70.79807 1565 ft 5 kts 175°
2026-04-26 23:18 -33.39604 -70.79805 1565 ft 0 kts 176°
2026-04-26 23:18 -33.39609 -70.79805 1565 ft 0 kts 176°